Погода в Даманхуре

Египет     31°02′07″N   30°28′07″E
темп.,
°C
ветер,
м/с
пор.,
м/с
влажн.,
%
обл.,
%
осадки,
мм/ч
давл.,
гПа
погр.,
м
23 сентября, чт
чт2323:00+23сз37750 0.0 1011146
02:00+23зсз22740 0.0 101133
05:00+22з22750 0.0 101030
08:00+27зсз45570 0.0 1011788
11:00+34зсз67310 0.0 10111784
14:00+33сз810380 0.0 10101529
17:00+28сз810570 0.0 10101174
20:00+25сз487257 0.0 1011405
24 сентября, пт
пт2423:00+24ссз59713 0.1 1012523
02:00+24сз6858100 0.1 10121473
05:00+21зсз376812 0.0 1012192
08:00+25зсз6849100 0.1 10131813
11:00+28сз78340 0.0 10132128
14:00+28сз88340 0.0 10122038
17:00+25ссз77430 0.0 10131643
20:00+21ссз23610 0.0 101436
25 сентября, сб
сб2523:00+21ссз246539 0.0 1015112
02:00+21ссз36630 0.0 1015150
05:00+20сз3363100 0.0 101449
08:00+26ссв675928 0.2 10151260
11:00+29св6640100 0.3 10152270
14:00+30с873856 0.3 10131944
17:00+26ссв78530 0.0 10141311
20:00+22ссв38680 0.0 1016183
26 сентября, вс
вс2623:00+21ссв35730 0.0 101590
02:00+20с34750 0.0 101560
05:00+20с34740 0.0 101566
08:00+25с44510 0.0 10151293
11:00+30с33330 0.0 10142050
14:00+31ссз85360 0.0 10121621
17:00+26ссз66490 0.0 10131098
20:00+22с24660 0.0 101475
27 сентября, пн
пн2723:00+21сз22690 0.0 101418
02:00+20зсз22710 0.0 101323
05:00+19зсз22740 0.0 101311
08:00+25зсз24520 0.0 1013785
11:00+30сз55350 0.0 10131855
14:00+30ссз76330 0.0 10111796
17:00+26сз66510 0.0 10121134
20:00+22сз23740 0.0 101353